Home   Weather   Wroclaw   Past weeks

Flag for Poland Past Weather in Wroclaw, Poland — Yesterday and Last 2 Weeks

Now
27 °F

Snow flurries. Ice fog.


Feels Like: 18 °F
Forecast: 28 / 32 °F
Wind: 8 mph from Northwest

Location: Wroclaw Ii

Current Time: Jan 24, 2017 at 4:34:02 pm

Latest Report: Jan 24, 2017 at 4:00 pm


Visibility: 3 mi

Pressure: 30.36 "Hg

Humidity: 93%

Dew Point: 25 °F

Location of WroclawLocation

Past Weather in Wroclaw — Graph

°F

Wroclaw Temperature Yesterday

Maximum temperature yesterday: 36 °F (at 11:30 am)
Minimum temperature yesterday: 18 °F (at 6:30 am)
Average temperature yesterday: 26 °F

High & Low Weather Summary for the Past Weeks

 TemperatureHumidityPressure
High43 °F (Jan 13, 11:30 am)100% (Jan 11, 9:30 pm)30.74 "Hg (Jan 11, 9:30 pm)
Low10 °F (Jan 11, 5:30 am)44% (Jan 11, 1:00 pm)29.24 "Hg (Jan 13, 6:30 am)
Average28 °F83%30.17 "Hg
* Reported Jan 9 3:00 pm — Jan 24 3:00 pm, Wroclaw, Weather by CustomWeather, © 2017

Note: Actual official high and low records may vary slightly from our data, if they occured in-between our weather recording intervals... More about our weather records

Advertising

Wroclaw Weather History for the Previous 24 Hours

Scroll right to see more
 ConditionsComfort  
Time TempWeatherWind HumidityBarometerVisibility
3:00 pm
Tue, Jan 24
27 °FSnow flurries. Ice fog.9 mph93%30.36 "Hg3 mi
2:30 pm27 °FSnow flurries. Ice fog.8 mph93%30.33 "Hg3 mi
2:00 pm27 °FSnow flurries. Ice fog.8 mph93%30.33 "Hg2 mi
1:30 pm27 °FSnow flurries. Ice fog.9 mph93%30.33 "Hg2 mi
1:00 pm27 °FSnow flurries. Ice fog.10 mph93%30.33 "Hg3 mi
12:30 pm27 °FSnow flurries. Ice fog.12 mph86%30.33 "Hg3 mi
12:00 pm27 °FSnow flurries. Ice fog.9 mph86%30.33 "Hg3 mi
11:30 am25 °FSnow flurries. Ice fog.8 mph93%30.33 "Hg3 mi
11:00 am25 °FSnow flurries. Ice fog.9 mph93%30.33 "Hg2 mi
10:30 am25 °FSnow flurries. Ice fog.9 mph93%30.33 "Hg2 mi
10:00 am25 °FSnow flurries. Ice fog.8 mph93%30.33 "Hg2 mi
9:30 am25 °FSnow flurries. Ice fog.8 mph93%30.33 "Hg2 mi
9:00 am25 °FSnow flurries. Ice fog.8 mph93%30.30 "Hg2 mi
8:30 am25 °FSnow flurries. Ice fog.8 mph93%30.30 "Hg3 mi
8:00 am25 °FSnow flurries. Ice fog.7 mph86%30.30 "Hg3 mi
7:30 am23 °FSnow flurries. Ice fog.6 mph93%30.30 "Hg3 mi
7:00 am23 °FSnow flurries. Ice fog.6 mph93%30.27 "Hg3 mi
6:30 am23 °FSnow flurries. Ice fog.8 mph93%30.27 "Hg3 mi
6:00 am23 °FSnow flurries. Mostly cloudy.9 mph93%30.27 "Hg4 mi
5:30 am23 °FLight snow. Mostly cloudy.8 mph86%30.27 "Hg5 mi
5:00 am23 °FMostly cloudy.8 mph86%30.27 "Hg4 mi
4:30 am23 °FLight snow. Passing clouds.9 mph86%30.27 "Hg4 mi
4:00 am23 °FLow clouds.9 mph86%30.27 "Hg5 mi
3:30 am23 °FLow clouds.10 mph86%30.27 "Hg6 mi
3:00 am23 °FLow clouds.9 mph86%30.27 "Hg5 mi
2:30 am23 °FPassing clouds.12 mph86%30.27 "Hg4 mi
2:00 am23 °FPassing clouds.12 mph86%30.27 "Hg5 mi
1:30 am23 °FPassing clouds.9 mph86%30.27 "Hg5 mi
1:00 am23 °FPassing clouds.9 mph86%30.27 "Hg5 mi
12:30 am23 °FPassing clouds.12 mph86%30.27 "Hg5 mi
12:00 am23 °FPassing clouds.10 mph86%30.27 "Hg4 mi
11:30 pm
Mon, Jan 23
23 °FPassing clouds.14 mph86%30.27 "Hg4 mi
11:00 pm21 °FClear.12 mph86%30.27 "Hg5 mi
10:30 pm23 °FClear.8 mph86%30.27 "Hg5 mi
10:00 pm23 °FClear.10 mph86%30.27 "Hg5 mi
9:30 pm23 °FClear.9 mph80%30.27 "Hg5 mi
9:00 pm21 °FClear.8 mph86%30.24 "Hg6 mi
8:30 pm25 °FClear.8 mph80%30.24 "Hg6 mi
8:00 pm25 °FClear.8 mph80%30.24 "Hg10 mi
7:30 pm25 °FClear.9 mph80%30.24 "Hg4 mi
7:00 pm27 °FClear.8 mph74%30.24 "Hg4 mi
6:30 pm27 °FClear.8 mph74%30.24 "Hg5 mi
6:00 pm27 °FClear.8 mph80%30.24 "Hg10 mi
5:30 pm28 °FClear.9 mph74%30.24 "Hg10 mi
5:00 pm28 °FClear.8 mph74%30.24 "Hg10 mi
4:30 pm30 °FClear.9 mph69%30.24 "Hg10 mi
4:00 pm30 °FSunny.9 mph69%30.21 "Hg10 mi
Weather by CustomWeather, © 2017

See weather overviewHow to use our weather pages